Year,Month,Day,Hour,Minute,Value (Times are PST for temperature in C)
2013,06,09,00,00,12.60
2013,06,09,00,01,12.60
2013,06,09,00,02,12.60
2013,06,09,00,03,12.60
2013,06,09,00,04,12.60
2013,06,09,00,05,12.50
2013,06,09,00,06,12.50
2013,06,09,00,07,12.50
2013,06,09,00,08,12.50
2013,06,09,00,09,12.50
2013,06,09,00,10,12.40
2013,06,09,00,11,12.40
2013,06,09,00,12,12.40
2013,06,09,00,13,12.40
2013,06,09,00,14,12.50
2013,06,09,00,15,12.50
2013,06,09,00,16,12.50
2013,06,09,00,17,12.50
2013,06,09,00,18,12.60
2013,06,09,00,19,12.60
2013,06,09,00,20,12.60
2013,06,09,00,21,12.50
2013,06,09,00,22,12.50
2013,06,09,00,23,12.50
2013,06,09,00,24,12.50
2013,06,09,00,25,12.50
2013,06,09,00,26,12.50
2013,06,09,00,27,12.50
2013,06,09,00,28,12.40
2013,06,09,00,29,12.40
2013,06,09,00,30,12.40
2013,06,09,00,31,12.40
2013,06,09,00,32,12.40
2013,06,09,00,33,12.30
2013,06,09,00,34,12.30
2013,06,09,00,35,12.30
2013,06,09,00,36,12.20
2013,06,09,00,37,12.20
2013,06,09,00,38,12.10
2013,06,09,00,39,12.00
2013,06,09,00,40,12.00
2013,06,09,00,41,11.90
2013,06,09,00,42,11.90
2013,06,09,00,43,11.80
2013,06,09,00,44,11.80
2013,06,09,00,45,11.80
2013,06,09,00,46,11.70
2013,06,09,00,47,11.70
2013,06,09,00,48,11.70
2013,06,09,00,49,11.70
2013,06,09,00,50,11.70
2013,06,09,00,51,11.80
2013,06,09,00,52,11.80
2013,06,09,00,53,11.90
2013,06,09,00,54,11.90
2013,06,09,00,55,12.00
2013,06,09,00,56,12.00
2013,06,09,00,57,12.10
2013,06,09,00,58,12.20
2013,06,09,00,59,12.20
2013,06,09,01,00,12.30
2013,06,09,01,01,12.30
2013,06,09,01,02,12.40
2013,06,09,01,03,12.40
2013,06,09,01,04,12.50
2013,06,09,01,05,12.50
2013,06,09,01,06,12.50
2013,06,09,01,07,12.60
2013,06,09,01,08,12.60
2013,06,09,01,09,12.60
2013,06,09,01,10,12.70
2013,06,09,01,11,12.70
2013,06,09,01,12,12.70
2013,06,09,01,13,12.80
2013,06,09,01,14,12.80
2013,06,09,01,15,12.80
2013,06,09,01,16,12.80
2013,06,09,01,17,12.80
2013,06,09,01,18,12.80
2013,06,09,01,19,12.80
2013,06,09,01,20,12.80
2013,06,09,01,21,12.80
2013,06,09,01,22,12.80
2013,06,09,01,23,12.80
2013,06,09,01,24,12.80
2013,06,09,01,25,12.80
2013,06,09,01,26,12.80
2013,06,09,01,27,12.80
2013,06,09,01,28,12.80
2013,06,09,01,29,12.80
2013,06,09,01,30,12.80
2013,06,09,01,31,12.80
2013,06,09,01,32,12.80
2013,06,09,01,33,12.80
2013,06,09,01,34,12.70
2013,06,09,01,35,12.70
2013,06,09,01,36,12.70
2013,06,09,01,37,12.70
2013,06,09,01,38,12.70
2013,06,09,01,39,12.70
2013,06,09,01,40,12.70
2013,06,09,01,41,12.70
2013,06,09,01,42,12.60
2013,06,09,01,43,12.60
2013,06,09,01,44,12.60
2013,06,09,01,45,12.60
2013,06,09,01,46,12.60
2013,06,09,01,47,12.60
2013,06,09,01,48,12.60
2013,06,09,01,49,12.60
2013,06,09,01,50,12.60
2013,06,09,01,51,12.70
2013,06,09,01,52,12.70
2013,06,09,01,53,12.70
2013,06,09,01,54,12.70
2013,06,09,01,55,12.70
2013,06,09,01,56,12.70
2013,06,09,01,57,12.60
2013,06,09,01,58,12.60
2013,06,09,01,59,12.60
2013,06,09,02,00,12.60
2013,06,09,02,01,12.60
2013,06,09,02,02,12.60
2013,06,09,02,03,12.60
2013,06,09,02,04,12.60
2013,06,09,02,05,12.50
2013,06,09,02,06,12.50
2013,06,09,02,07,12.50
2013,06,09,02,08,12.50
2013,06,09,02,09,12.50
2013,06,09,02,10,12.40
2013,06,09,02,11,12.40
2013,06,09,02,12,12.40
2013,06,09,02,13,12.40
2013,06,09,02,14,12.40
2013,06,09,02,15,12.40
2013,06,09,02,16,12.40
2013,06,09,02,17,12.40
2013,06,09,02,18,12.40
2013,06,09,02,19,12.30
2013,06,09,02,20,12.30
2013,06,09,02,21,12.30
2013,06,09,02,22,12.30
2013,06,09,02,23,12.30
2013,06,09,02,24,12.30
2013,06,09,02,25,12.30
2013,06,09,02,26,12.30
2013,06,09,02,27,12.30
2013,06,09,02,28,12.30
2013,06,09,02,29,12.30
2013,06,09,02,30,12.30
2013,06,09,02,31,12.30
2013,06,09,02,32,12.30
2013,06,09,02,33,12.30
2013,06,09,02,34,12.40
2013,06,09,02,35,12.40
2013,06,09,02,36,12.40
2013,06,09,02,37,12.30
2013,06,09,02,38,12.30
2013,06,09,02,39,12.30
2013,06,09,02,40,12.30
2013,06,09,02,41,12.30
2013,06,09,02,42,12.30
2013,06,09,02,43,12.30
2013,06,09,02,44,12.30
2013,06,09,02,45,12.20
2013,06,09,02,46,12.20
2013,06,09,02,47,12.20
2013,06,09,02,48,12.20
2013,06,09,02,49,12.20
2013,06,09,02,50,12.20
2013,06,09,02,51,12.20
2013,06,09,02,52,12.20
2013,06,09,02,53,12.20
2013,06,09,02,54,12.20
2013,06,09,02,55,12.10
2013,06,09,02,56,12.10
2013,06,09,02,57,12.10
2013,06,09,02,58,12.10
2013,06,09,02,59,12.10
2013,06,09,03,00,12.10
2013,06,09,03,01,12.10
2013,06,09,03,02,12.10
2013,06,09,03,03,12.10
2013,06,09,03,04,12.20
2013,06,09,03,05,12.20
2013,06,09,03,06,12.20
2013,06,09,03,07,12.20
2013,06,09,03,08,12.20
2013,06,09,03,09,12.30
2013,06,09,03,10,12.30
2013,06,09,03,11,12.30
2013,06,09,03,12,12.30
2013,06,09,03,13,12.40
2013,06,09,03,14,12.40
2013,06,09,03,15,12.40
2013,06,09,03,16,12.40
2013,06,09,03,17,12.50
2013,06,09,03,18,12.50
2013,06,09,03,19,12.50
2013,06,09,03,20,12.60
2013,06,09,03,21,12.60
2013,06,09,03,22,12.60
2013,06,09,03,23,12.60
2013,06,09,03,24,12.60
2013,06,09,03,25,12.60
2013,06,09,03,26,12.60
2013,06,09,03,27,12.50
2013,06,09,03,28,12.50
2013,06,09,03,29,12.50
2013,06,09,03,30,12.50
2013,06,09,03,31,12.40
2013,06,09,03,32,12.40
2013,06,09,03,33,12.40
2013,06,09,03,34,12.40
2013,06,09,03,35,12.40
2013,06,09,03,36,12.40
2013,06,09,03,37,12.40
2013,06,09,03,38,12.40
2013,06,09,03,39,12.40
2013,06,09,03,40,12.40
2013,06,09,03,41,12.40
2013,06,09,03,42,12.40
2013,06,09,03,43,12.40
2013,06,09,03,44,12.40
2013,06,09,03,45,12.40
2013,06,09,03,46,12.40
2013,06,09,03,47,12.40
2013,06,09,03,48,12.40
2013,06,09,03,49,12.50
2013,06,09,03,50,12.50
2013,06,09,03,51,12.50
2013,06,09,03,52,12.50
2013,06,09,03,53,12.50
2013,06,09,03,54,12.50
2013,06,09,03,55,12.50
2013,06,09,03,56,12.50
2013,06,09,03,57,12.50
2013,06,09,03,58,12.50
2013,06,09,03,59,12.50
2013,06,09,04,00,12.50
2013,06,09,04,01,12.50
2013,06,09,04,02,12.50
2013,06,09,04,03,12.60
2013,06,09,04,04,12.60
2013,06,09,04,05,12.60
2013,06,09,04,06,12.60
2013,06,09,04,07,12.60
2013,06,09,04,08,12.60
2013,06,09,04,09,12.60
2013,06,09,04,10,12.60
2013,06,09,04,11,12.60
2013,06,09,04,12,12.60
2013,06,09,04,13,12.60
2013,06,09,04,14,12.60
2013,06,09,04,15,12.50
2013,06,09,04,16,12.50
2013,06,09,04,17,12.40
2013,06,09,04,18,12.40
2013,06,09,04,19,12.30
2013,06,09,04,20,12.30
2013,06,09,04,21,12.20
2013,06,09,04,22,12.20
2013,06,09,04,23,12.20
2013,06,09,04,24,12.20
2013,06,09,04,25,12.20
2013,06,09,04,26,12.10
2013,06,09,04,27,12.20
2013,06,09,04,28,12.20
2013,06,09,04,29,12.20
2013,06,09,04,30,12.20
2013,06,09,04,31,12.20
2013,06,09,04,32,12.20
2013,06,09,04,33,12.20
2013,06,09,04,34,12.20
2013,06,09,04,35,12.30
2013,06,09,04,36,12.30
2013,06,09,04,37,12.30
2013,06,09,04,38,12.30
2013,06,09,04,39,12.30
2013,06,09,04,40,12.30
2013,06,09,04,41,12.30
2013,06,09,04,42,12.40
2013,06,09,04,43,12.40
2013,06,09,04,44,12.40
2013,06,09,04,45,12.30
2013,06,09,04,46,12.30
2013,06,09,04,47,12.30
2013,06,09,04,48,12.30
2013,06,09,04,49,12.30
2013,06,09,04,50,12.30
2013,06,09,04,51,12.30
2013,06,09,04,52,12.30
2013,06,09,04,53,12.30
2013,06,09,04,54,12.30
2013,06,09,04,55,12.30
2013,06,09,04,56,12.30
2013,06,09,04,57,12.30
2013,06,09,04,58,12.40
2013,06,09,04,59,12.40
2013,06,09,05,00,12.40
2013,06,09,05,01,12.40
2013,06,09,05,02,12.40
2013,06,09,05,03,12.40
2013,06,09,05,04,12.40
2013,06,09,05,05,12.40
2013,06,09,05,06,12.40
2013,06,09,05,07,12.40
2013,06,09,05,08,12.40
2013,06,09,05,09,12.40
2013,06,09,05,10,12.40
2013,06,09,05,11,12.30
2013,06,09,05,12,12.40
2013,06,09,05,13,12.40
2013,06,09,05,14,12.40
2013,06,09,05,15,12.40
2013,06,09,05,16,12.30
2013,06,09,05,17,12.30
2013,06,09,05,18,12.30
2013,06,09,05,19,12.30
2013,06,09,05,20,12.30
2013,06,09,05,21,12.30
2013,06,09,05,22,12.40
2013,06,09,05,23,12.40
2013,06,09,05,24,12.40
2013,06,09,05,25,12.40
2013,06,09,05,26,12.40
2013,06,09,05,27,12.40
2013,06,09,05,28,12.40
2013,06,09,05,29,12.40
2013,06,09,05,30,12.40
2013,06,09,05,31,12.40
2013,06,09,05,32,12.40
2013,06,09,05,33,12.40
2013,06,09,05,34,12.40
2013,06,09,05,35,12.40
2013,06,09,05,36,12.40
2013,06,09,05,37,12.40
2013,06,09,05,38,12.40
2013,06,09,05,39,12.40
2013,06,09,05,40,12.30
2013,06,09,05,41,12.30
2013,06,09,05,42,12.30
2013,06,09,05,43,12.30
2013,06,09,05,44,12.30
2013,06,09,05,45,12.30
2013,06,09,05,46,12.30
2013,06,09,05,47,12.30
2013,06,09,05,48,12.30
2013,06,09,05,49,12.30
2013,06,09,05,50,12.30
2013,06,09,05,51,12.30
2013,06,09,05,52,12.30
2013,06,09,05,53,12.30
2013,06,09,05,54,12.30
2013,06,09,05,55,12.30
2013,06,09,05,56,12.30
2013,06,09,05,57,12.20
2013,06,09,05,58,12.20
2013,06,09,05,59,12.20
2013,06,09,06,00,12.20
2013,06,09,06,01,12.20
2013,06,09,06,02,12.20
2013,06,09,06,03,12.20
2013,06,09,06,04,12.20
2013,06,09,06,05,12.20
2013,06,09,06,06,12.20
2013,06,09,06,07,12.20
2013,06,09,06,08,12.10
2013,06,09,06,09,12.10
2013,06,09,06,10,12.10
2013,06,09,06,11,12.10
2013,06,09,06,12,12.10
2013,06,09,06,13,12.10
2013,06,09,06,14,12.10
2013,06,09,06,15,12.10
2013,06,09,06,16,12.10
2013,06,09,06,17,12.10
2013,06,09,06,18,12.20
2013,06,09,06,19,12.20
2013,06,09,06,20,12.20
2013,06,09,06,21,12.20
2013,06,09,06,22,12.20
2013,06,09,06,23,12.30
2013,06,09,06,24,12.30
2013,06,09,06,25,12.30
2013,06,09,06,26,12.30
2013,06,09,06,27,12.30
2013,06,09,06,28,12.40
2013,06,09,06,29,12.40
2013,06,09,06,30,12.40
2013,06,09,06,31,12.40
2013,06,09,06,32,12.50
2013,06,09,06,33,12.50
2013,06,09,06,34,12.60
2013,06,09,06,35,12.60
2013,06,09,06,36,12.60
2013,06,09,06,37,12.70
2013,06,09,06,38,12.70
2013,06,09,06,39,12.70
2013,06,09,06,40,12.70
2013,06,09,06,41,12.70
2013,06,09,06,42,12.70
2013,06,09,06,43,12.70
2013,06,09,06,44,12.70
2013,06,09,06,45,12.70
2013,06,09,06,46,12.70
2013,06,09,06,47,12.70
2013,06,09,06,48,12.70
2013,06,09,06,49,12.70
2013,06,09,06,50,12.70
2013,06,09,06,51,12.70
2013,06,09,06,52,12.60
2013,06,09,06,53,12.60
2013,06,09,06,54,12.60
2013,06,09,06,55,12.60
2013,06,09,06,56,12.60
2013,06,09,06,57,12.60
2013,06,09,06,58,12.60
2013,06,09,06,59,12.60
2013,06,09,07,00,12.60
2013,06,09,07,01,12.60
2013,06,09,07,02,12.60
2013,06,09,07,03,12.60
2013,06,09,07,04,12.60
2013,06,09,07,05,12.60
2013,06,09,07,06,12.60
2013,06,09,07,07,12.60
2013,06,09,07,08,12.60
2013,06,09,07,09,12.60
2013,06,09,07,10,12.70
2013,06,09,07,11,12.70
2013,06,09,07,12,12.70
2013,06,09,07,13,12.70
2013,06,09,07,14,12.70
2013,06,09,07,15,12.80
2013,06,09,07,16,12.80
2013,06,09,07,17,12.80
2013,06,09,07,18,12.80
2013,06,09,07,19,12.80
2013,06,09,07,20,12.80
2013,06,09,07,21,12.80
2013,06,09,07,22,12.90
2013,06,09,07,23,12.80
2013,06,09,07,24,12.80
2013,06,09,07,25,12.80
2013,06,09,07,26,12.80
2013,06,09,07,27,12.80
2013,06,09,07,28,12.80
2013,06,09,07,29,12.80
2013,06,09,07,30,12.80
2013,06,09,07,31,12.80
2013,06,09,07,32,12.80
2013,06,09,07,33,12.80
2013,06,09,07,34,12.80
2013,06,09,07,35,12.80
2013,06,09,07,36,12.80
2013,06,09,07,37,12.80
2013,06,09,07,38,12.80
2013,06,09,07,39,12.80
2013,06,09,07,40,12.80
2013,06,09,07,41,12.80
2013,06,09,07,42,12.80
2013,06,09,07,43,12.80
2013,06,09,07,44,12.80
2013,06,09,07,45,12.90
2013,06,09,07,46,12.90
2013,06,09,07,47,12.90
2013,06,09,07,48,12.90
2013,06,09,07,49,12.90
2013,06,09,07,50,12.90
2013,06,09,07,51,12.90
2013,06,09,07,52,13.00
2013,06,09,07,53,13.00
2013,06,09,07,54,13.00
2013,06,09,07,55,13.10
2013,06,09,07,56,13.10
2013,06,09,07,57,13.10
2013,06,09,07,58,13.10
2013,06,09,07,59,13.10
2013,06,09,08,00,13.20
2013,06,09,08,01,13.20
2013,06,09,08,02,13.20
2013,06,09,08,03,13.20
2013,06,09,08,04,13.30
2013,06,09,08,05,13.30
2013,06,09,08,06,13.30
2013,06,09,08,07,13.30
2013,06,09,08,08,13.30
2013,06,09,08,09,13.30
2013,06,09,08,10,13.30
2013,06,09,08,11,13.30
2013,06,09,08,12,13.30
2013,06,09,08,13,13.30
2013,06,09,08,14,13.30
2013,06,09,08,15,13.30
2013,06,09,08,16,13.40
2013,06,09,08,17,13.40
2013,06,09,08,18,13.40
2013,06,09,08,19,13.40
2013,06,09,08,20,13.40
2013,06,09,08,21,13.40
2013,06,09,08,22,13.50
2013,06,09,08,23,13.50
2013,06,09,08,24,13.50
2013,06,09,08,25,13.60
2013,06,09,08,26,13.60
2013,06,09,08,27,13.60
2013,06,09,08,28,13.70
2013,06,09,08,29,13.80
2013,06,09,08,30,13.80
2013,06,09,08,31,13.90
2013,06,09,08,32,13.90
2013,06,09,08,33,13.90
2013,06,09,08,34,13.90
2013,06,09,08,35,13.90
2013,06,09,08,36,13.90
2013,06,09,08,37,13.90
2013,06,09,08,38,13.90
2013,06,09,08,39,13.90
2013,06,09,08,40,14.00
2013,06,09,08,41,14.00
2013,06,09,08,42,14.10
2013,06,09,08,43,14.20
2013,06,09,08,44,14.20
2013,06,09,08,45,14.30
2013,06,09,08,46,14.30
2013,06,09,08,47,14.40
2013,06,09,08,48,14.40
2013,06,09,08,49,14.50
2013,06,09,08,50,14.50
2013,06,09,08,51,14.60
2013,06,09,08,52,14.50
2013,06,09,08,53,14.40
2013,06,09,08,54,14.40
2013,06,09,08,55,14.30
2013,06,09,08,56,14.30
2013,06,09,08,57,14.30
2013,06,09,08,58,14.40
2013,06,09,08,59,14.40
2013,06,09,09,00,14.40
2013,06,09,09,01,14.40
2013,06,09,09,02,14.40
2013,06,09,09,03,14.30
2013,06,09,09,04,14.30
2013,06,09,09,05,14.30
2013,06,09,09,06,14.30
2013,06,09,09,07,14.30
2013,06,09,09,08,14.30
2013,06,09,09,09,14.30
2013,06,09,09,10,14.40
2013,06,09,09,11,14.40
2013,06,09,09,12,14.50
2013,06,09,09,13,14.60
2013,06,09,09,14,14.60
2013,06,09,09,15,14.60
2013,06,09,09,16,14.60
2013,06,09,09,17,14.70
2013,06,09,09,18,14.70
2013,06,09,09,19,14.80
2013,06,09,09,20,14.90
2013,06,09,09,21,15.00
2013,06,09,09,22,15.00
2013,06,09,09,23,15.00
2013,06,09,09,24,15.00
2013,06,09,09,25,14.90
2013,06,09,09,26,14.90
2013,06,09,09,27,15.00
2013,06,09,09,28,15.00
2013,06,09,09,29,15.00
2013,06,09,09,30,15.10
2013,06,09,09,31,15.20
2013,06,09,09,32,15.20
2013,06,09,09,33,15.20
2013,06,09,09,34,15.20
2013,06,09,09,35,15.00
2013,06,09,09,36,15.00
2013,06,09,09,37,15.00
2013,06,09,09,38,15.00
2013,06,09,09,39,15.00
2013,06,09,09,40,14.90
2013,06,09,09,41,14.80
2013,06,09,09,42,14.80
2013,06,09,09,43,14.80
2013,06,09,09,44,14.80
2013,06,09,09,45,14.90
2013,06,09,09,46,15.00
2013,06,09,09,47,15.00
2013,06,09,09,48,15.00
2013,06,09,09,49,15.20
2013,06,09,09,50,15.30
2013,06,09,09,51,15.40
2013,06,09,09,52,15.40
2013,06,09,09,53,15.50
2013,06,09,09,54,15.50
2013,06,09,09,55,15.60
2013,06,09,09,56,15.80
2013,06,09,09,57,16.00
2013,06,09,09,58,16.00
2013,06,09,09,59,16.10
2013,06,09,10,00,16.10
2013,06,09,10,01,16.10
2013,06,09,10,02,16.20
2013,06,09,10,03,16.10
2013,06,09,10,04,16.10
2013,06,09,10,05,15.90
2013,06,09,10,06,15.80
2013,06,09,10,07,15.70
2013,06,09,10,08,15.70
2013,06,09,10,09,15.60
2013,06,09,10,10,15.60
2013,06,09,10,11,15.60
2013,06,09,10,12,15.50
2013,06,09,10,13,15.40
2013,06,09,10,14,15.40
2013,06,09,10,15,15.40
2013,06,09,10,16,15.40
2013,06,09,10,17,15.50
2013,06,09,10,18,15.60
2013,06,09,10,19,15.60
2013,06,09,10,20,15.70
2013,06,09,10,21,15.70
2013,06,09,10,22,15.80
2013,06,09,10,23,15.90
2013,06,09,10,24,16.00
2013,06,09,10,25,16.20
2013,06,09,10,26,16.30
2013,06,09,10,27,16.40
2013,06,09,10,28,16.40
2013,06,09,10,29,16.30
2013,06,09,10,30,16.20
2013,06,09,10,31,16.20
2013,06,09,10,32,16.10
2013,06,09,10,33,16.00
2013,06,09,10,34,15.90
2013,06,09,10,35,15.80
2013,06,09,10,36,15.80
2013,06,09,10,37,15.80
2013,06,09,10,38,15.80
2013,06,09,10,39,15.80
2013,06,09,10,40,15.80
2013,06,09,10,41,15.80
2013,06,09,10,42,15.70
2013,06,09,10,43,15.60
2013,06,09,10,44,15.60
2013,06,09,10,45,15.60
2013,06,09,10,46,15.70
2013,06,09,10,47,15.70
2013,06,09,10,48,15.80
2013,06,09,10,49,15.80
2013,06,09,10,50,15.90
2013,06,09,10,51,15.90
2013,06,09,10,52,15.90
2013,06,09,10,53,15.90
2013,06,09,10,54,15.90
2013,06,09,10,55,15.90
2013,06,09,10,56,15.90
2013,06,09,10,57,15.90
2013,06,09,10,58,16.00
2013,06,09,10,59,16.00
2013,06,09,11,00,16.00
2013,06,09,11,01,15.90
2013,06,09,11,02,15.80
2013,06,09,11,03,15.70
2013,06,09,11,04,15.70
2013,06,09,11,05,15.80
2013,06,09,11,06,15.80
2013,06,09,11,07,15.80
2013,06,09,11,08,15.90
2013,06,09,11,09,16.00
2013,06,09,11,10,16.00
2013,06,09,11,11,16.00
2013,06,09,11,12,16.00
2013,06,09,11,13,16.10
2013,06,09,11,14,16.10
2013,06,09,11,15,16.10
2013,06,09,11,16,16.10
2013,06,09,11,17,16.10
2013,06,09,11,18,16.10
2013,06,09,11,19,16.00
2013,06,09,11,20,16.00
2013,06,09,11,21,15.90
2013,06,09,11,22,15.90
2013,06,09,11,23,15.80
2013,06,09,11,24,15.80
2013,06,09,11,25,15.80
2013,06,09,11,26,15.80
2013,06,09,11,27,15.90
2013,06,09,11,28,15.90
2013,06,09,11,29,15.90
2013,06,09,11,30,15.90
2013,06,09,11,31,15.90
2013,06,09,11,32,15.90
2013,06,09,11,33,15.90
2013,06,09,11,34,15.90
2013,06,09,11,35,15.90
2013,06,09,11,36,15.90
2013,06,09,11,37,15.90
2013,06,09,11,38,15.90
2013,06,09,11,39,15.90
2013,06,09,11,40,15.90
2013,06,09,11,41,15.80
2013,06,09,11,42,15.80
2013,06,09,11,43,15.80
2013,06,09,11,44,15.70
2013,06,09,11,45,15.70
2013,06,09,11,46,15.80
2013,06,09,11,47,15.80
2013,06,09,11,48,15.90
2013,06,09,11,49,16.00
2013,06,09,11,50,16.00
2013,06,09,11,51,16.10
2013,06,09,11,52,16.10
2013,06,09,11,53,16.10
2013,06,09,11,54,16.20
2013,06,09,11,55,16.30
2013,06,09,11,56,16.30
2013,06,09,11,57,16.30
2013,06,09,11,58,16.50
2013,06,09,11,59,16.60
2013,06,09,12,00,16.50
2013,06,09,12,01,16.40
2013,06,09,12,02,16.40
2013,06,09,12,03,16.30
2013,06,09,12,04,16.30
2013,06,09,12,05,16.40
2013,06,09,12,06,16.50
2013,06,09,12,07,16.50
2013,06,09,12,08,16.70
2013,06,09,12,09,16.80
2013,06,09,12,10,16.90
2013,06,09,12,11,17.00
2013,06,09,12,12,17.00
2013,06,09,12,13,17.00
2013,06,09,12,14,16.90
2013,06,09,12,15,16.90
2013,06,09,12,16,16.80
2013,06,09,12,17,16.70
2013,06,09,12,18,16.70
2013,06,09,12,19,16.60
2013,06,09,12,20,16.50
2013,06,09,12,21,16.40
2013,06,09,12,22,16.40
2013,06,09,12,23,16.40
2013,06,09,12,24,16.30
2013,06,09,12,25,16.20
2013,06,09,12,26,16.20
2013,06,09,12,27,16.10
2013,06,09,12,28,16.10
2013,06,09,12,29,16.00
2013,06,09,12,30,16.00
2013,06,09,12,31,16.00
2013,06,09,12,32,16.00
2013,06,09,12,33,16.00
2013,06,09,12,34,15.90
2013,06,09,12,35,15.90
2013,06,09,12,36,15.80
2013,06,09,12,37,15.90
2013,06,09,12,38,15.90
2013,06,09,12,39,16.00
2013,06,09,12,40,16.00
2013,06,09,12,41,16.00
2013,06,09,12,42,16.00
2013,06,09,12,43,15.90
2013,06,09,12,44,15.90
2013,06,09,12,45,15.90
2013,06,09,12,46,15.90
2013,06,09,12,47,15.90
2013,06,09,12,48,15.90
2013,06,09,12,49,15.90
2013,06,09,12,50,15.90
2013,06,09,12,51,15.90
2013,06,09,12,52,15.90
2013,06,09,12,53,15.90
2013,06,09,12,54,15.90
2013,06,09,12,55,15.80
2013,06,09,12,56,15.80
2013,06,09,12,57,15.80
2013,06,09,12,58,15.90
2013,06,09,12,59,15.90
2013,06,09,13,00,15.80
2013,06,09,13,01,15.80
2013,06,09,13,02,15.80
2013,06,09,13,03,15.90
2013,06,09,13,04,16.00
2013,06,09,13,05,16.10
2013,06,09,13,06,16.10
2013,06,09,13,07,16.20
2013,06,09,13,08,16.30
2013,06,09,13,09,16.40
2013,06,09,13,10,16.50
2013,06,09,13,11,16.60
2013,06,09,13,12,16.60
2013,06,09,13,13,16.70
2013,06,09,13,14,16.70
2013,06,09,13,15,16.70
2013,06,09,13,16,16.60
2013,06,09,13,17,16.40
2013,06,09,13,18,16.20
2013,06,09,13,19,16.20
2013,06,09,13,20,16.20
2013,06,09,13,21,16.20
2013,06,09,13,22,16.30
2013,06,09,13,23,16.30
2013,06,09,13,24,16.20
2013,06,09,13,25,16.20
2013,06,09,13,26,16.20
2013,06,09,13,27,16.20
2013,06,09,13,28,16.20
2013,06,09,13,29,16.20
2013,06,09,13,30,16.20
2013,06,09,13,31,16.30
2013,06,09,13,32,16.40
2013,06,09,13,33,16.30
2013,06,09,13,34,16.40
2013,06,09,13,35,16.50
2013,06,09,13,36,16.70
2013,06,09,13,37,16.90
2013,06,09,13,38,17.10
2013,06,09,13,39,17.30
2013,06,09,13,40,17.40
2013,06,09,13,41,17.40
2013,06,09,13,42,17.40
2013,06,09,13,43,17.40
2013,06,09,13,44,17.30
2013,06,09,13,45,17.10
2013,06,09,13,46,16.90
2013,06,09,13,47,16.80
2013,06,09,13,48,16.70
2013,06,09,13,49,16.70
2013,06,09,13,50,16.50
2013,06,09,13,51,16.40
2013,06,09,13,52,16.40
2013,06,09,13,53,16.50
2013,06,09,13,54,16.40
2013,06,09,13,55,16.40
2013,06,09,13,56,16.40
2013,06,09,13,57,16.40
2013,06,09,13,58,16.50
2013,06,09,13,59,16.50
2013,06,09,14,00,16.40
2013,06,09,14,01,16.40
2013,06,09,14,02,16.30
2013,06,09,14,03,16.40
2013,06,09,14,04,16.40
2013,06,09,14,05,16.60
2013,06,09,14,06,16.70
2013,06,09,14,07,16.80
2013,06,09,14,08,16.90
2013,06,09,14,09,17.00
2013,06,09,14,10,17.10
2013,06,09,14,11,17.00
2013,06,09,14,12,16.90
2013,06,09,14,13,16.80
2013,06,09,14,14,16.60
2013,06,09,14,15,16.50
2013,06,09,14,16,16.40
2013,06,09,14,17,16.50
2013,06,09,14,18,16.50
2013,06,09,14,19,16.50
2013,06,09,14,20,16.60
2013,06,09,14,21,16.70
2013,06,09,14,22,16.70
2013,06,09,14,23,16.80
2013,06,09,14,24,16.70
2013,06,09,14,25,16.60
2013,06,09,14,26,16.60
2013,06,09,14,27,16.70
2013,06,09,14,28,16.70
2013,06,09,14,29,16.70
2013,06,09,14,30,16.80
2013,06,09,14,31,16.80
2013,06,09,14,32,16.80
2013,06,09,14,33,17.00
2013,06,09,14,34,17.10
2013,06,09,14,35,17.10
2013,06,09,14,36,17.20
2013,06,09,14,37,17.10
2013,06,09,14,38,17.10
2013,06,09,14,39,17.10
2013,06,09,14,40,17.10
2013,06,09,14,41,17.10
2013,06,09,14,42,17.20
2013,06,09,14,43,17.30
2013,06,09,14,44,17.40
2013,06,09,14,45,17.40
2013,06,09,14,46,17.40
2013,06,09,14,47,17.40
2013,06,09,14,48,17.50
2013,06,09,14,49,17.50
2013,06,09,14,50,17.50
2013,06,09,14,51,17.50
2013,06,09,14,52,17.50
2013,06,09,14,53,17.60
2013,06,09,14,54,17.60
2013,06,09,14,55,17.60
2013,06,09,14,56,17.50
2013,06,09,14,57,17.40
2013,06,09,14,58,17.30
2013,06,09,14,59,17.20
2013,06,09,15,00,17.10
2013,06,09,15,01,17.00
2013,06,09,15,02,17.00
2013,06,09,15,03,17.00
2013,06,09,15,04,17.00
2013,06,09,15,05,17.00
2013,06,09,15,06,17.10
2013,06,09,15,07,17.10
2013,06,09,15,08,17.10
2013,06,09,15,09,17.10
2013,06,09,15,10,17.20
2013,06,09,15,11,17.20
2013,06,09,15,12,17.20
2013,06,09,15,13,17.10
2013,06,09,15,14,17.10
2013,06,09,15,15,17.00
2013,06,09,15,16,16.90
2013,06,09,15,17,16.80
2013,06,09,15,18,16.80
2013,06,09,15,19,16.70
2013,06,09,15,20,16.70
2013,06,09,15,21,16.70
2013,06,09,15,22,16.70
2013,06,09,15,23,16.60
2013,06,09,15,24,16.70
2013,06,09,15,25,16.70
2013,06,09,15,26,16.70
2013,06,09,15,27,16.60
2013,06,09,15,28,16.60
2013,06,09,15,29,16.60
2013,06,09,15,30,16.50
2013,06,09,15,31,16.50
2013,06,09,15,32,16.40
2013,06,09,15,33,16.30
2013,06,09,15,34,16.30
2013,06,09,15,35,16.30
2013,06,09,15,36,16.30
2013,06,09,15,37,16.30
2013,06,09,15,38,16.20
2013,06,09,15,39,16.20
2013,06,09,15,40,16.20
2013,06,09,15,41,16.20
2013,06,09,15,42,16.20
2013,06,09,15,43,16.20
2013,06,09,15,44,16.20
2013,06,09,15,45,16.10
2013,06,09,15,46,16.10
2013,06,09,15,47,16.10
2013,06,09,15,48,16.10
2013,06,09,15,49,16.10
2013,06,09,15,50,16.10
2013,06,09,15,51,16.10
2013,06,09,15,52,16.10
2013,06,09,15,53,16.10
2013,06,09,15,54,16.20
2013,06,09,15,55,16.20
2013,06,09,15,56,16.20
2013,06,09,15,57,16.30
2013,06,09,15,58,16.30
2013,06,09,15,59,16.30
2013,06,09,16,00,16.20
2013,06,09,16,01,16.20
2013,06,09,16,02,16.10
2013,06,09,16,03,16.00
2013,06,09,16,04,15.90
2013,06,09,16,05,15.90
2013,06,09,16,06,15.90
2013,06,09,16,07,16.00
2013,06,09,16,08,16.10
2013,06,09,16,09,16.20
2013,06,09,16,10,16.20
2013,06,09,16,11,16.30
2013,06,09,16,12,16.30
2013,06,09,16,13,16.30
2013,06,09,16,14,16.30
2013,06,09,16,15,16.30
2013,06,09,16,16,16.20
2013,06,09,16,17,16.20
2013,06,09,16,18,16.20
2013,06,09,16,19,16.10
2013,06,09,16,20,16.10
2013,06,09,16,21,16.10
2013,06,09,16,22,16.10
2013,06,09,16,23,16.20
2013,06,09,16,24,16.20
2013,06,09,16,25,16.20
2013,06,09,16,26,16.30
2013,06,09,16,27,16.30
2013,06,09,16,28,16.30
2013,06,09,16,29,16.40
2013,06,09,16,30,16.40
2013,06,09,16,31,16.40
2013,06,09,16,32,16.40
2013,06,09,16,33,16.40
2013,06,09,16,34,16.30
2013,06,09,16,35,16.20
2013,06,09,16,36,16.20
2013,06,09,16,37,16.20
2013,06,09,16,38,16.10
2013,06,09,16,39,16.10
2013,06,09,16,40,16.10
2013,06,09,16,41,16.10
2013,06,09,16,42,16.10
2013,06,09,16,43,16.10
2013,06,09,16,44,16.10
2013,06,09,16,45,16.10
2013,06,09,16,46,16.00
2013,06,09,16,47,16.00
2013,06,09,16,48,16.00
2013,06,09,16,49,16.00
2013,06,09,16,50,16.00
2013,06,09,16,51,16.00
2013,06,09,16,52,16.00
2013,06,09,16,53,16.00
2013,06,09,16,54,16.00
2013,06,09,16,55,16.10
2013,06,09,16,56,16.00
2013,06,09,16,57,16.00
2013,06,09,16,58,15.90
2013,06,09,16,59,15.90
2013,06,09,17,00,15.90
2013,06,09,17,01,15.90
2013,06,09,17,02,15.80
2013,06,09,17,03,15.80
2013,06,09,17,04,15.90
2013,06,09,17,05,16.00
2013,06,09,17,06,16.10
2013,06,09,17,07,16.10
2013,06,09,17,08,16.10
2013,06,09,17,09,16.10
2013,06,09,17,10,16.10
2013,06,09,17,11,16.10
2013,06,09,17,12,16.00
2013,06,09,17,13,16.00
2013,06,09,17,14,15.90
2013,06,09,17,15,15.90
2013,06,09,17,16,15.90
2013,06,09,17,17,15.90
2013,06,09,17,18,15.90
2013,06,09,17,19,16.00